Trenton, NJ

6:16 AM EDT on August 17, 2017 (GMT -0400)
Trenton Mercer

Weather History for KTTN - October, 2014

Change the Weather History Date:

Tuesday, October 21, 2014

  Actual Average Record
Temperature  
Mean Temperature 60 °F 53 °F  
Max Temperature 70 °F 63 °F 85 °F (1947)
Min Temperature 49 °F 42 °F 28 °F (1952)
Degree Days  
Heating Degree Days 5 12  
Month to date heating degree days 134 194  
Since 1 July heating degree days 182 259  
Cooling Degree Days 0 0  
Month to date cooling degree days 14 7  
Year to date cooling degree days 930 962  
Growing Degree Days 8 (Base 50)    
Moisture  
Dew Point 47 °F    
Average Humidity 66    
Maximum Humidity 86    
Minimum Humidity 45    
Precipitation  
Precipitation 0.00 in 0.14 in 2.10 in (1988)
Month to date precipitation 2.19 2.86  
Year to date precipitation 34.70 38.11  
Sea Level Pressure  
Sea Level Pressure 29.85 in    
Wind  
Wind Speed 3 mph (NNE)    
Max Wind Speed 12 mph    
Max Gust Speed 15 mph    
Visibility 10 miles    
Events      
T = Trace of Precipitation, MM = Missing Value Source: NWS Daily Summary

Daily Weather History Graph

Daily Weather History Graph

Search for Another Location

Airport or City:

Trip Planner

Search our weather history database for the weather conditions in past years. The results will help you decide how hot, cold, wet, or windy it might be!

Date:

Astronomy

Oct. 21, 2014 Rise Set
Actual Time 7:16 AM EDT 6:10 PM EDT
Civil Twilight 6:48 AM EDT 6:38 PM EDT
Nautical Twilight 6:17 AM EDT 7:09 PM EDT
Astronomical Twilight 5:45 AM EDT 7:41 PM EDT
Moon 4:58 AM EDT (10/21) 5:03 PM EDT (10/21)
Length of Visible Light 11h 49m
Length of Day
10h 54m
Waning Crescent, 5% of the Moon is Illuminated
Oct 21
Waning Crescent
Oct 23
New
Oct 30
First Quarter
Nov 6
Full
Nov 14
Last Quarter

Hourly Weather History & Observations

Time (EDT) Temp. Dew Point Humidity Pressure Visibility Wind Dir Wind Speed Gust Speed Precip Events Conditions
12:53 AM 52.0 °F 44.1 °F 74% 29.93 in 10.0 mi Calm Calm - N/A   Partly Cloudy
1:53 AM 50.0 °F 44.1 °F 80% 29.91 in 10.0 mi Calm Calm - N/A   Overcast
2:53 AM 51.1 °F 44.1 °F 77% 29.90 in 10.0 mi Calm Calm - N/A   Overcast
3:53 AM 50.0 °F 44.1 °F 80% 29.89 in 10.0 mi Calm Calm - N/A   Overcast
4:53 AM 50.0 °F 45.0 °F 83% 29.88 in 10.0 mi North 3.5 mph - N/A   Overcast
5:53 AM 48.9 °F 45.0 °F 86% 29.86 in 10.0 mi SE 4.6 mph - N/A   Overcast
6:53 AM 48.9 °F 45.0 °F 86% 29.86 in 10.0 mi Calm Calm - N/A   Mostly Cloudy
7:53 AM 48.9 °F 45.0 °F 86% 29.87 in 10.0 mi Calm Calm - N/A   Overcast
8:53 AM 54.0 °F 46.0 °F 75% 29.88 in 10.0 mi NE 3.5 mph - N/A   Mostly Cloudy
9:53 AM 57.0 °F 48.0 °F 72% 29.87 in 10.0 mi Calm Calm - N/A   Clear
10:53 AM 61.0 °F 48.9 °F 64% 29.86 in 10.0 mi Calm Calm - N/A   Clear
11:53 AM 62.1 °F 48.9 °F 62% 29.85 in 10.0 mi South 3.5 mph - N/A   Mostly Cloudy
12:53 PM 64.9 °F 48.9 °F 56% 29.82 in 10.0 mi SE 3.5 mph - N/A   Clear
1:53 PM 66.9 °F 48.9 °F 52% 29.80 in 10.0 mi Calm Calm - N/A   Clear
2:53 PM 68.0 °F 46.0 °F 45% 29.79 in 10.0 mi Calm Calm - N/A   Partly Cloudy
3:53 PM 68.0 °F 46.0 °F 45% 29.79 in 10.0 mi Variable 3.5 mph - N/A   Scattered Clouds
4:53 PM 68.0 °F 46.0 °F 45% 29.78 in 10.0 mi NW 5.8 mph - N/A   Clear
5:53 PM 64.9 °F 46.0 °F 50% 29.80 in 10.0 mi WNW 4.6 mph - N/A   Clear
6:53 PM 62.1 °F 50.0 °F 65% 29.82 in 10.0 mi NNE 4.6 mph - N/A   Mostly Cloudy
7:53 PM 60.1 °F 52.0 °F 75% 29.84 in 10.0 mi NE 5.8 mph - N/A   Mostly Cloudy
8:53 PM 57.9 °F 52.0 °F 81% 29.85 in 10.0 mi NE 9.2 mph - N/A   Partly Cloudy
9:53 PM 57.0 °F 48.9 °F 74% 29.87 in 10.0 mi NNE 9.2 mph - N/A   Overcast
10:53 PM 55.9 °F 48.0 °F 75% 29.88 in 10.0 mi North 4.6 mph - N/A   Overcast
11:53 PM 55.0 °F 48.9 °F 80% 29.87 in 10.0 mi North 8.1 mph - N/A   Overcast